Zurück zum Katalog

SL-14 R/B

AktivPO
NORAD 17192·ROCKET BODY·🇷🇺 Russia

Gestartet Dec 10, 1986 von Plesetsk Cosmodrome

Loading…

Nächste Überflüge (nächste 24 Stunden)

TLE

AktuellSource: Space-Track

Epoche: Sep 14, 2026, 15:03 UTC

1 17192U 86097B   26257.62729309  .00000298  00000-0  31217-4 0  9997
2 17192  82.5078 324.1190 0017532 117.4653  43.3649 14.86045706128402

Verfolge SL-14 R/B in Echtzeit mit AllMySat

Download on the App Store